EA5JSM-13 Weather Reports


time (UTC)temp
F
wind
direction
speed
knots
gust
knots
rain 1hr
in
rain 24hr
in
rain mn
in
humidity
%
barometer
mb
20260906160201 84 0.0 0.0 0.00 0.00 0.00 66 1020.7
20260906154124 83 0.0 0.0 0.00 0.00 0.00 67 1020.7
20260906153106 83 0.0 0.0 0.00 0.00 0.00 66 1020.8
20260906152047 84 0.0 0.0 0.00 0.00 0.00 65 1020.9
20260906150016 84 0.0 0.0 0.00 0.00 0.00 64 1021.1
20260906150010 84 0.0 0.0 0.00 0.00 0.00 64 1021.1
20260906144952 84 0.0 0.0 0.00 0.00 0.00 64 1021.2
20260906143938 85 0.0 0.0 0.00 0.00 0.00 63 1021.2
20260906143933 85 0.0 0.0 0.00 0.00 0.00 63 1021.2
20260906142915 84 0.0 0.0 0.00 0.00 0.00 65 1021.2
20260906141856 84 0.0 0.0 0.00 0.00 0.00 63 1021.2
20260906140838 84 0.0 0.0 0.00 0.00 0.00 63 1021.3
20260906135819 84 0.0 0.0 0.00 0.00 0.00 64 1021.4
20260906132729 83 0.0 0.0 0.00 0.00 0.00 63 1021.5
20260906132723 83 0.0 0.0 0.00 0.00 0.00 63 1021.5
20260906131705 83 0.0 0.0 0.00 0.00 0.00 62 1021.5
20260906124615 83 0.0 0.0 0.00 0.00 0.00 62 1021.6
20260906124609 83 0.0 0.0 0.00 0.00 0.00 62 1021.6
20260906122532 83 0.0 0.0 0.00 0.00 0.00 61 1021.9
20260906121514 83 0.0 0.0 0.00 0.00 0.00 61 1021.8
20260906120455 83 0.0 0.0 0.00 0.00 0.00 61 1021.9
20260906115437 83 0.0 0.0 0.00 0.00 0.00 61 1021.9
20260906114418 83 0.0 0.0 0.00 0.00 0.00 62 1021.9
20260906113400 84 0.0 0.0 0.00 0.00 0.00 60 1021.9
20260906112341 83 0.0 0.0 0.00 0.00 0.00 63 1021.9
20260906111328 83 0.0 0.0 0.00 0.00 0.00 65 1021.9
20260906111323 83 0.0 0.0 0.00 0.00 0.00 65 1021.9
20260906110304 83 0.0 0.0 0.00 0.00 0.00 63 1021.9
20260906105246 84 0.0 0.0 0.00 0.00 0.00 58 1021.8
20260906104227 84 0.0 0.0 0.00 0.00 0.00 59 1021.9
20260906103209 84 0.0 0.0 0.00 0.00 0.00 59 1021.9
20260906102150 84 0.0 0.0 0.00 0.00 0.00 57 1022.0
20260906101132 84 0.0 0.0 0.00 0.00 0.00 55 1022.0
20260906100118 85 0.0 0.0 0.00 0.00 0.00 55 1022.0
20260906100113 85 0.0 0.0 0.00 0.00 0.00 55 1022.0
20260906095054 85 0.0 0.0 0.00 0.00 0.00 56 1021.9
20260906094036 84 0.0 0.0 0.00 0.00 0.00 58 1021.9
20260906093017 84 0.0 0.0 0.00 0.00 0.00 58 1021.8
20260906092004 84 0.0 0.0 0.00 0.00 0.00 58 1021.8
20260906091959 84 0.0 0.0 0.00 0.00 0.00 58 1021.8